Location: Unspecified
(33.3110°N, 0.0000°E)
Time: 03:46:27
(UTC+00:00)

FO-29 - Visible Passes

Search period start: 04 April 2026 00:00
Search period end: 14 April 2026 00:00
Orbit: 801 x 1320 km, 98.5° (Epoch: 29 March)

Date Brightness Start Highest point End Pass type
(mag) Time Alt. Az. Time Alt. Az. Time Alt. Az.
4 Apr 9.9 20:16:21 10° NNE 20:24:12 89° ESE 20:31:24 10° SSW visible
4 Apr 12.4 22:03:36 10° NNW 22:08:00 16° WNW 22:12:17 10° W visible
5 Apr 10.5 19:21:53 10° NNE 19:28:50 36° E 19:35:15 10° SSE visible
5 Apr 11.1 21:06:38 10° N 21:13:44 41° WNW 21:20:22 10° SW visible
6 Apr 9.9 20:11:07 10° NNE 20:18:55 84° ESE 20:26:00 10° SSW visible
6 Apr 12.3 21:58:08 10° NNW 22:02:47 18° WNW 22:07:17 10° W visible
7 Apr 10.5 19:16:46 10° NNE 19:23:29 33° E 19:29:40 10° SSE visible
7 Apr 11.0 21:01:19 10° N 21:08:29 43° WNW 21:15:06 10° SW visible
8 Apr 9.8 20:05:53 10° NNE 20:13:37 78° ESE 20:20:35 10° S visible
8 Apr 12.2 21:52:41 10° NNW 21:57:34 19° WNW 22:02:15 10° W visible
9 Apr 10.6 19:11:41 10° NE 19:18:08 30° E 19:24:02 10° SSE visible
9 Apr 10.9 20:56:01 10° N 21:03:14 46° WNW 21:09:49 10° SW visible
10 Apr 9.8 20:00:41 10° NNE 20:08:19 73° ESE 20:15:08 10° S visible
10 Apr 12.1 21:47:16 10° NNW 21:52:21 20° WNW 21:57:10 10° WSW visible
11 Apr 10.7 19:06:37 10° NE 19:12:45 27° E 19:18:22 10° SSE visible
11 Apr 10.7 20:50:44 10° N 20:57:58 49° WNW 21:04:31 10° SW visible
12 Apr 9.8 19:55:28 10° NNE 20:02:59 67° E 20:09:40 10° S visible
12 Apr 12.1 21:41:52 10° NNW 21:47:06 21° WNW 21:52:03 10° WSW visible
13 Apr 10.8 19:01:34 10° NE 19:07:22 25° E 19:12:40 10° SE visible
13 Apr 10.6 20:45:27 10° N 20:52:41 52° WNW 20:59:11 10° SW visible
